{"data":{"norad_id":66063,"intl_designator":"2025-235F","name":"STARLINK-35562","alt_names":[],"object_type":"PAYLOAD","status":"ACTIVE","operator":null,"country":"US","launch_date":"2025-10-19","launch_site_code":"AFETR","launch_vehicle":null,"mission":null,"orbit_class":"UNKNOWN","rcs_meters":null,"size_class":null,"mass_kg":null,"dimensions":null,"purposes":["comms"],"wikipedia_slug":null,"has_3d_model":false,"image_url":null,"decayed_at":null,"tle_current":{"epoch":"2026-09-20T22:10:04.135872Z","epoch_age_seconds":66412,"freshness":"FRESH","line1":"1 66063U 25235F   26263.92365898  .00013667  00000+0  41458-3 0  9994","line2":"2 66063  53.1628  57.6518 0000900  74.6766 285.4336 15.34424359 52823","mean_motion":15.34424359,"eccentricity":9.0e-5,"inclination_deg":53.1628,"raan_deg":57.6518,"arg_perigee_deg":74.6766,"mean_anomaly_deg":285.4336,"bstar":0.00041458,"rev_number":5282,"period_min":93.846268247362,"perigee_km":462.01517197778,"apogee_km":463.24651018917,"semimajor_km":6840.7678410835,"source":"CELESTRAK","updated_at":"2026-09-21T09:00:35.794777Z"}}}